N228GS KBHM-KBHM

Flight info

Callsign N228GS
Flight time 0h 17m
Altitude
Route PATTERN WORK
Aircraft C152/L-DOV/C

Departure

Time 2026-04-17 00:17
Airport Birmingham-Shuttlesworth International Airport (KBHM)

Arrival

Time 2026-04-17 00:34
Airport Birmingham-Shuttlesworth International Airport (KBHM)
Time Latitude Longitude Altitude Speed Heading
2026-04-17 00:11 33.56384 -86.74500 637 ft 0 kts 266°
2026-04-17 00:11 33.56384 -86.74505 637 ft 3 kts 273°
2026-04-17 00:12 33.56384 -86.74511 637 ft 2 kts 276°
2026-04-17 00:12 33.56421 -86.74562 638 ft 14 kts 319°
2026-04-17 00:12 33.56525 -86.74589 638 ft 17 kts
2026-04-17 00:12 33.56642 -86.74588 639 ft 16 kts
2026-04-17 00:13 33.56748 -86.74587 642 ft 14 kts 16°
2026-04-17 00:13 33.56808 -86.74504 643 ft 13 kts 55°
2026-04-17 00:13 33.56869 -86.74399 642 ft 18 kts 56°
2026-04-17 00:13 33.56944 -86.74267 641 ft 19 kts 54°
2026-04-17 00:14 33.57020 -86.74135 640 ft 20 kts 56°
2026-04-17 00:14 33.57100 -86.73999 640 ft 19 kts 55°
2026-04-17 00:14 33.57174 -86.73871 643 ft 18 kts 53°
2026-04-17 00:14 33.57258 -86.73853 644 ft 11 kts 326°
2026-04-17 00:15 33.57268 -86.73860 644 ft 0 kts 324°
2026-04-17 00:15 33.57270 -86.73862 644 ft 3 kts 325°
2026-04-17 00:16 33.57317 -86.73938 646 ft 20 kts 269°
2026-04-17 00:16 33.57208 -86.74164 643 ft 51 kts 236°
2026-04-17 00:16 33.56948 -86.74615 696 ft 73 kts 236°
2026-04-17 00:16 33.56662 -86.75111 853 ft 72 kts 236°
2026-04-17 00:17 33.56397 -86.75586 1092 ft 68 kts 233°
2026-04-17 00:17 33.56109 -86.76080 1180 ft 74 kts 234°
2026-04-17 00:17 33.55795 -86.76553 1419 ft 69 kts 230°
2026-04-17 00:17 33.55461 -86.76975 1564 ft 72 kts 222°
2026-04-17 00:18 33.54953 -86.77069 1615 ft 86 kts 174°
2026-04-17 00:18 33.54428 -86.76774 1717 ft 86 kts 143°
2026-04-17 00:18 33.54171 -86.76092 1782 ft 93 kts 91°
2026-04-17 00:18 33.54433 -86.75401 1801 ft 98 kts 58°
2026-04-17 00:19 33.54859 -86.74672 1714 ft 112 kts 52°
2026-04-17 00:19 33.55318 -86.73924 1701 ft 112 kts 54°
2026-04-17 00:19 33.55794 -86.73143 1590 ft 120 kts 54°
2026-04-17 00:19 33.56247 -86.72352 1507 ft 113 kts 56°
2026-04-17 00:20 33.56821 -86.71938 1541 ft 94 kts 351°
2026-04-17 00:20 33.57378 -86.72343 1373 ft 99 kts 301°
2026-04-17 00:20 33.57585 -86.73125 1138 ft 103 kts 277°
2026-04-17 00:20 33.57339 -86.73920 770 ft 102 kts 237°
2026-04-17 00:21 33.56979 -86.74556 650 ft 80 kts 236°
2026-04-17 00:21 33.56704 -86.75035 641 ft 68 kts 236°
2026-04-17 00:21 33.56409 -86.75520 803 ft 70 kts 232°
2026-04-17 00:21 33.56109 -86.75956 1006 ft 67 kts 229°
2026-04-17 00:22 33.55476 -86.76750 1435 ft 69 kts 208°
2026-04-17 00:22 33.54955 -86.76659 1544 ft 87 kts 155°
2026-04-17 00:22 33.54501 -86.76111 1563 ft 103 kts 129°
2026-04-17 00:23 33.54264 -86.75301 1661 ft 102 kts 95°
2026-04-17 00:23 33.54567 -86.74534 1652 ft 114 kts 38°
2026-04-17 00:23 33.55122 -86.73945 1734 ft 112 kts 62°
2026-04-17 00:23 33.55479 -86.73099 1725 ft 112 kts 59°
2026-04-17 00:24 33.55973 -86.72388 1665 ft 108 kts 33°
2026-04-17 00:24 33.56669 -86.72200 1511 ft 102 kts 351°
2026-04-17 00:24 33.57276 -86.72505 1293 ft 90 kts 317°
2026-04-17 00:24 33.57580 -86.73111 1115 ft 84 kts 272°
2026-04-17 00:25 33.57414 -86.73764 879 ft 82 kts 240°
2026-04-17 00:25 33.57115 -86.74320 687 ft 77 kts 236°
2026-04-17 00:25 33.56832 -86.74807 645 ft 63 kts 236°
2026-04-17 00:25 33.56577 -86.75253 669 ft 72 kts 235°
2026-04-17 00:26 33.56271 -86.75705 891 ft 67 kts 229°
2026-04-17 00:26 33.55952 -86.76080 1090 ft 64 kts 224°
2026-04-17 00:26 33.55579 -86.76361 1340 ft 66 kts 196°
2026-04-17 00:26 33.55128 -86.76134 1463 ft 83 kts 139°
2026-04-17 00:27 33.54881 -86.75438 1571 ft 98 kts 100°
2026-04-17 00:27 33.54888 -86.74600 1596 ft 101 kts 78°
2026-04-17 00:27 33.55147 -86.73838 1659 ft 97 kts 62°
2026-04-17 00:27 33.55525 -86.73186 1713 ft 95 kts 50°
2026-04-17 00:28 33.55971 -86.72554 1670 ft 103 kts 46°
2026-04-17 00:28 33.56498 -86.71921 1550 ft 108 kts 44°
2026-04-17 00:28 33.57103 -86.71623 1511 ft 90 kts 353°
2026-04-17 00:28 33.57628 -86.71941 1376 ft 81 kts 304°
2026-04-17 00:29 33.57831 -86.72563 1171 ft 81 kts 271°
2026-04-17 00:29 33.57695 -86.73221 944 ft 88 kts 245°
2026-04-17 00:29 33.57384 -86.73849 787 ft 84 kts 238°
2026-04-17 00:29 33.57077 -86.74383 660 ft 71 kts 236°
2026-04-17 00:30 33.56816 -86.74840 644 ft 63 kts 235°
2026-04-17 00:30 33.56539 -86.75316 698 ft 72 kts 235°
2026-04-17 00:30 33.56257 -86.75763 881 ft 65 kts 231°
2026-04-17 00:30 33.55974 -86.76181 1007 ft 65 kts 231°
2026-04-17 00:31 33.55653 -86.76559 1210 ft 63 kts 205°
2026-04-17 00:31 33.55197 -86.76478 1318 ft 72 kts 163°
2026-04-17 00:31 33.54799 -86.76130 1428 ft 83 kts 140°
2026-04-17 00:31 33.54622 -86.75484 1575 ft 88 kts 82°
2026-04-17 00:32 33.54908 -86.74786 1575 ft 96 kts 60°
2026-04-17 00:32 33.55267 -86.74124 1612 ft 94 kts 54°
2026-04-17 00:32 33.55686 -86.73495 1609 ft 98 kts 50°
2026-04-17 00:32 33.56143 -86.72845 1532 ft 105 kts 48°
2026-04-17 00:33 33.56672 -86.72295 1537 ft 95 kts 24°
2026-04-17 00:33 33.57278 -86.72325 1445 ft 88 kts 322°
2026-04-17 00:33 33.57600 -86.72931 1276 ft 89 kts 280°
2026-04-17 00:33 33.57491 -86.73667 1009 ft 96 kts 243°
2026-04-17 00:34 33.57107 -86.74332 711 ft 92 kts 237°
2026-04-17 00:34 33.56788 -86.74888 644 ft 70 kts 236°
2026-04-17 00:34 33.56545 -86.75309 638 ft 54 kts 235°
2026-04-17 00:34 33.56380 -86.75605 638 ft 21 kts 237°
2026-04-17 00:35 33.56326 -86.75584 638 ft 12 kts 86°
2026-04-17 00:35 33.56351 -86.75492 638 ft 6 kts 45°
2026-04-17 00:35 33.56352 -86.75491 638 ft 0 kts 61°
2026-04-17 00:35 33.56353 -86.75486 638 ft 4 kts 73°
2026-04-17 00:36 33.56373 -86.75402 637 ft 16 kts 55°
2026-04-17 00:36 33.56446 -86.75276 635 ft 21 kts 55°
2026-04-17 00:36 33.56535 -86.75124 638 ft 24 kts 54°
2026-04-17 00:36 33.56601 -86.74935 639 ft 26 kts 92°
2026-04-17 00:37 33.56627 -86.74820 642 ft 3 kts 57°
2026-04-17 00:37 33.56627 -86.74819 642 ft 0 kts 57°
2026-04-17 00:37 33.56628 -86.74818 642 ft 1 kts 56°
2026-04-17 00:37 33.56656 -86.74768 643 ft 14 kts 53°
2026-04-17 00:38 33.56729 -86.74635 642 ft 20 kts 70°
2026-04-17 00:38 33.56684 -86.74590 640 ft 14 kts 181°
2026-04-17 00:38 33.56639 -86.74492 637 ft 16 kts 88°
2026-04-17 00:38 33.56656 -86.74360 638 ft 16 kts 59°
2026-04-17 00:39 33.56681 -86.74321 639 ft 0 kts 50°